SCOUT X-1 DEB

Satellite information

Favourite Embed

Satellite Type and Status

DEBRISIN ORBIT

Key statistics

Satellite SCOUT X-1 DEB at a glance.

Uptime

23624

Days in orbit

Revolutions

≈ 15.0

Per day

Orbit

LEO

Low Earth Orbit

Inclination

39.0

Latest

Satellite identification and parameters

Extended collection of information and parameters for SCOUT X-1 DEB.

Object identification

Identified? True

Debris? True

Object name: SCOUT X-1 DEB

International designator: 1961-004F

Object number (NORAD): 3927

Object ID (CCSDS): 3927

Country: UNITED STATES OF AMERICA (US)

Current information (Y/N): Y

RCS size: SMALL

Orbital parameters

Period: 96.232 minutes

Inclination: 38.9817 deg

SMA: 6956.24 km

Apoapsis: 687.759 km

Periapsis: 468.452 km

RAAN: 325.1191 deg

Eccentricy: 0.01576329

Argument of periapsis: 170.5194 deg

Mean anomaly: 189.8612 deg

Mean motion: 14.96376508 rev/day

Mean motion (dot): 0.00091606 rev/day2

B* drag term: 0.0061025347 1/REarth

Two-line elements (TLE)

Creation date: Oct. 21, 2025, 6:24 p.m.

Reference frame: TEME

Reference center: EARTH

Epoch: Oct. 21, 2025, 4 a.m. UTC

TLE line 0: 0 SCOUT X-1 DEB

TLE line 1: 1 03927U 61004F 25294.16681193 .00091606 00000-0 61025-2 0 9997

TLE line 2: 2 03927 38.9817 325.1191 0157633 170.5194 189.8612 14.96376508 94662

Live tracking on map

Real-time ground track for satellite SCOUT X-1 DEB.

In-orbit conjunctions

A list of the most updated potential collisions computed for object SCOUT X-1 DEB.

Target Orbit TCA Probability of collision Miss distance Type
SL-8 R/B LEO 2025-02-13 09:23:50 0.0001449994 29.0 (m) ROCKET BODY

Associated space launch

SCOUT X-1 DEB was lifted into orbit during the mission ‘Scout X-1 | Explorer 9’, on board a Scout X-1 space rocket.

The launch took place on Feb. 16, 1961, 1:05 p.m. from Launch Area 3.

For more information about the launch, click the button.

Launch to space Scout X-1 | Explorer 9
Scout X-1 | Explorer 9

Agency: N/A

Status: Launch Successful

Launch date: Feb. 16, 1961, 1:05 p.m. UTC

Rocket: Scout X-1

Launch pad: Launch Area 3

Location: Wallops Flight Facility, Virginia, USA

...

Latest news about this satellite

There are no fresh news available about this satellite. Check back as we update our databases every day.


Newsletter sign-up

Weekly statistics, charts and insights to help you stay on top of the space industry.